Home > Weather > Vancouver > Past weeks

Flag for Canada Past Weather in Vancouver, British Columbia, Canada — Yesterday and Last 2 Weeks

Now
73 °F

Passing clouds.


Feels Like: 76 °F
Forecast: 62 / 82 °F
Wind: 9 mph from Northwest

Location: Vancouver International Airport

Current Time: Aug 24, 2016 at 6:23:51 PM

Latest Report: Aug 24, 2016 at 5:00 PM


Visibility: 30 mi

Pressure: 30.16 "Hg

Humidity: 61%

Dew Point: 59 °F

Location of VancouverLocation

Past Weather in Vancouver — Graph

°F

Vancouver Temperature Yesterday

Maximum temperature yesterday: 70 °F (at 3:00 PM)
Minimum temperature yesterday: 55 °F (at 4:00 AM)
Average temperature yesterday: 63 °F

High & Low Weather Summary for the Past Weeks

 TemperatureHumidityPressure
High79 °F (Aug 19, 5:00 PM)94% (Aug 11, 12:00 AM)30.26 "Hg (Aug 11, 12:00 AM)
Low55 °F (Aug 23, 4:00 AM)48% (Aug 19, 6:00 PM)29.76 "Hg (Aug 21, 3:00 AM)
Average66 °F77%30.03 "Hg
* Reported Aug 9 5:00 PM — Aug 24 5:00 PM, Vancouver, Weather by CustomWeather, © 2016

Note: Actual official high and low records may vary slightly from our data, if they occured in-between our weather recording intervals... More about our weather records

Advertising

Vancouver Weather History for the Previous 24 Hours

Scroll right to see more
 ConditionsComfort  
Time TempWeatherWind HumidityBarometerVisibility
5:00 PM
Wed, Aug 24
73 °FPassing clouds.9 mph61%30.16 "Hg30 mi
4:00 PM73 °FPassing clouds.13 mph61%30.18 "Hg30 mi
3:00 PM72 °FPassing clouds.14 mph65%30.19 "Hg30 mi
2:00 PM72 °FPassing clouds.13 mph65%30.22 "Hg30 mi
1:00 PM70 °FPassing clouds.15 mph69%30.24 "Hg30 mi
12:00 PM68 °FPassing clouds.14 mph73%30.25 "Hg30 mi
11:00 AM68 °FPassing clouds.14 mph73%30.26 "Hg30 mi
10:00 AM66 °FPassing clouds.15 mph78%30.26 "Hg30 mi
9:00 AM64 °FPassing clouds.14 mph83%30.26 "Hg30 mi
8:00 AM63 °FPassing clouds.15 mph88%30.26 "Hg30 mi
7:00 AM61 °FPassing clouds.14 mph88%30.25 "Hg30 mi
6:00 AM61 °FPassing clouds.12 mph88%30.24 "Hg30 mi
5:00 AM61 °FClear.12 mph88%30.22 "Hg20 mi
4:00 AM61 °FClear.7 mph88%30.22 "Hg20 mi
3:00 AM61 °FClear.10 mph94%30.21 "Hg20 mi
2:00 AM61 °FClear.3 mph88%30.20 "Hg20 mi
1:00 AM59 °FPassing clouds.3 mph82%30.19 "Hg20 mi
12:00 AM63 °FClear.5 mph77%30.19 "Hg20 mi
11:00 PM
Tue, Aug 23
61 °FClear.3 mph88%30.18 "Hg20 mi
10:00 PM64 °FClear.5 mph78%30.17 "Hg20 mi
9:00 PM63 °FPassing clouds.9 mph83%30.16 "Hg30 mi
8:00 PM64 °FPassing clouds.9 mph78%30.15 "Hg30 mi
7:00 PM68 °FPassing clouds.8 mph69%30.15 "Hg30 mi
6:00 PM70 °FPassing clouds.10 mph64%30.16 "Hg30 mi
Weather by CustomWeather, © 2016

See weather overviewHow to use our weather pages